This is the latest recevied weather packets stored in our database for station/object KJ5IIV. If no packets are shown the sender has not sent any weather packets the latest 10 day(s).
| Time | Temp. | Humidity | Pressure | Rain* | Wind** | Luminosity | Snow |
|---|---|---|---|---|---|---|---|
| 1778080013 | 13.89° C | 88% | 1013.6 hPa | 0 mm | - | 91 W/m² | - |
| 1778079710 | 13.89° C | 88% | 1013.3 hPa | 0 mm | - | 136 W/m² | - |
| 1778079406 | 13.89° C | 88% | 1013.2 hPa | 0 mm | - | 116 W/m² | - |
| 1778079103 | 13.89° C | 88% | 1013.1 hPa | 0 mm | - | 100 W/m² | - |
| 1778078801 | 13.89° C | 87% | 1012.9 hPa | 0 mm | - | 100 W/m² | - |
| 1778078497 | 13.89° C | 88% | 1012.9 hPa | 0 mm | - | 90 W/m² | - |
| 1778078195 | 13.89° C | 88% | 1012.8 hPa | 0 mm | - | 73 W/m² | - |
| 1778077893 | 13.33° C | 88% | 1012.8 hPa | 0 mm | - | 86 W/m² | - |
| 1778077591 | 13.33° C | 88% | 1012.6 hPa | 0 mm | - | 97 W/m² | - |
| 1778077289 | 13.33° C | 88% | 1012.7 hPa | 0 mm | - | 99 W/m² | - |
| 1778076986 | 13.33° C | 87% | 1012.6 hPa | 0 mm | - | 97 W/m² | - |
| 1778076685 | 13.33° C | 87% | 1012.6 hPa | 0 mm | - | 122 W/m² | - |
| 1778076382 | 13.33° C | 87% | 1012.5 hPa | 0 mm | - | 121 W/m² | - |
| 1778076079 | 13.89° C | 87% | 1012.3 hPa | 0 mm | - | 128 W/m² | - |
| 1778075775 | 13.33° C | 88% | 1012.2 hPa | 0 mm | - | 105 W/m² | - |
| 1778075472 | 13.33° C | 87% | 1012.4 hPa | 0 mm | - | 98 W/m² | - |
| 1778075168 | 13.33° C | 87% | 1012.2 hPa | 0 mm | - | 68 W/m² | - |
| 1778074864 | 13.33° C | 87% | 1012.1 hPa | 0 mm | - | 66 W/m² | - |
| 1778074562 | 13.33° C | 87% | 1012.3 hPa | 0 mm | - | 61 W/m² | - |
| 1778074259 | 13.89° C | 86% | 1012.2 hPa | 0 mm | - | 62 W/m² | - |
| 1778073956 | 13.89° C | 86% | 1012.3 hPa | 0 mm | - | 50 W/m² | - |
| 1778073653 | 13.89° C | 85% | 1012.2 hPa | 0 mm | - | 55 W/m² | - |
| 1778073350 | 13.89° C | 85% | 1012 hPa | 0 mm | - | 32 W/m² | - |
| 1778073046 | 13.89° C | 84% | 1012 hPa | 0 mm | - | 37 W/m² | - |
| 1778072743 | 13.89° C | 85% | 1012.2 hPa | 0 mm | - | 29 W/m² | - |
* Rain latest hour (hover to see other rain measurements)
** Current wind speed in m/s (hover to see current wind gust speed)